Alvadore, OR

2:43 PM PDT on August 24, 2016 (GMT -0700)
Mahlon Sweet

Weather History for KEUG - June, 2014

Change the Weather History Date:

Saturday, June 7, 2014

  Actual Average Record
Temperature  
Mean Temperature 63 °F 59 °F  
Max Temperature 78 °F 71 °F 93 °F (1926)
Min Temperature 48 °F 46 °F 35 °F (1979)
Degree Days  
Heating Degree Days 2 7  
Month to date heating degree days 35 50  
Since 1 June heating degree days 35 50  
Since 1 July heating degree days 4670 4699  
Cooling Degree Days 0 0  
Month to date cooling degree days 0 0  
Year to date cooling degree days 3 5  
Since 1 June cooling degree days 0 0  
Growing Degree Days 13 (Base 50)    
Moisture  
Dew Point 50 °F    
Average Humidity 63    
Maximum Humidity 83    
Minimum Humidity 43    
Precipitation  
Precipitation 0.00 in 0.07 in 1.02 in (1985)
Month to date precipitation 0.00 0.51  
Year to date precipitation 21.15 23.87  
Sea Level Pressure  
Sea Level Pressure 30.14 in    
Wind  
Wind Speed 9 mph (NNE)    
Max Wind Speed 18 mph    
Max Gust Speed 26 mph    
Visibility 10 miles    
Events      
T = Trace of Precipitation, MM = Missing Value Source: NWS Daily Summary

Daily Weather History Graph

Daily Weather History Graph

Search for Another Location

Airport or City:

Trip Planner

Search our weather history database for the weather conditions in past years. The results will help you decide how hot, cold, wet, or windy it might be!

Date:

Astronomy

Jun. 07, 2014 Rise Set
Actual Time 5:30 AM PDT 8:53 PM PDT
Civil Twilight 4:54 AM PDT 9:29 PM PDT
Nautical Twilight 4:07 AM PDT 10:16 PM PDT
Astronomical Twilight 3:08 AM PDT 11:16 PM PDT
Moon 3:06 PM PDT (6/7) 2:06 AM PDT (6/7)
Length of Visible Light 16h 35m
Length of Day
15h 23m
Waxing Gibbous, 69% of the Moon is Illuminated
Jun 7
Waxing Gibbous
Jun 12
Full
Jun 19
Last Quarter
Jun 27
New
Jul 5
First Quarter

Hourly Weather History & Observations

Time (PDT) Temp. Dew Point Humidity Pressure Visibility Wind Dir Wind Speed Gust Speed Precip Events Conditions
12:54 AM 54.0 °F 46.0 °F 75% 30.10 in 10.0 mi NNE 4.6 mph - N/A   Clear
1:54 AM 53.1 °F 45.0 °F 74% 30.11 in 10.0 mi Calm Calm - N/A   Clear
2:54 AM 53.1 °F 44.1 °F 71% 30.12 in 10.0 mi NNW 3.5 mph - N/A   Clear
3:54 AM 48.9 °F 43.0 °F 80% 30.13 in 10.0 mi NW 3.5 mph - N/A   Clear
4:54 AM 50.0 °F 42.8 °F 76% 30.14 in 10.0 mi NNE 4.6 mph - N/A   Clear
5:54 AM 48.2 °F 42.8 °F 82% 30.15 in 10.0 mi Calm Calm - N/A   Partly Cloudy
6:54 AM 51.1 °F 46.0 °F 83% 30.16 in 10.0 mi NNE 8.1 mph - N/A   Mostly Cloudy
7:54 AM 57.9 °F 48.0 °F 70% 30.17 in 10.0 mi North 10.4 mph - N/A   Partly Cloudy
8:54 AM 61.0 °F 48.9 °F 64% 30.18 in 10.0 mi NNE 10.4 mph - N/A   Partly Cloudy
9:54 AM 64.9 °F 50.0 °F 58% 30.18 in 10.0 mi North 10.4 mph - N/A   Clear
10:54 AM 68.0 °F 51.1 °F 55% 30.18 in 10.0 mi NNE 13.8 mph - N/A   Partly Cloudy
11:54 AM 71.1 °F 51.1 °F 49% 30.17 in 10.0 mi NNE 12.7 mph - N/A   Partly Cloudy
12:54 PM 73.0 °F 51.1 °F 46% 30.17 in 10.0 mi NNE 17.3 mph 21.9 mph N/A   Partly Cloudy
1:54 PM 75.0 °F 52.0 °F 44% 30.15 in 10.0 mi NNE 11.5 mph 21.9 mph N/A   Partly Cloudy
2:54 PM 75.9 °F 52.0 °F 43% 30.13 in 10.0 mi NNE 13.8 mph 21.9 mph N/A   Partly Cloudy
3:54 PM 77.0 °F 53.1 °F 43% 30.12 in 10.0 mi NNE 17.3 mph 24.2 mph N/A   Partly Cloudy
4:54 PM 77.0 °F 54.0 °F 45% 30.12 in 10.0 mi North 13.8 mph 21.9 mph N/A   Partly Cloudy
5:54 PM 77.0 °F 54.0 °F 45% 30.11 in 10.0 mi NNE 12.7 mph 19.6 mph N/A   Partly Cloudy
6:54 PM 75.0 °F 55.0 °F 50% 30.10 in 10.0 mi NNE 10.4 mph - N/A   Partly Cloudy
7:54 PM 73.0 °F 55.9 °F 55% 30.11 in 10.0 mi North 9.2 mph - N/A   Partly Cloudy
8:54 PM 64.9 °F 55.9 °F 73% 30.12 in 10.0 mi North 6.9 mph - N/A   Partly Cloudy
9:54 PM 63.0 °F 54.0 °F 72% 30.14 in 10.0 mi North 8.1 mph - N/A   Clear
10:54 PM 60.1 °F 53.1 °F 78% 30.16 in 10.0 mi Calm Calm - N/A   Clear
11:54 PM 55.9 °F 51.1 °F 84% 30.17 in 10.0 mi East 4.6 mph - N/A   Clear